Weather History for Fort Collins, CO

Change the Weather History Date:

Sunday, December 23, 2012

  Actual Average Record
Temperature  
Mean Temperature 33 °F -  
Max Temperature 51 °F 40 °F 57 °F (2005)
Min Temperature 15 °F 16 °F -7 °F (1998)
Degree Days  
Heating Degree Days 32    
Moisture  
Dew Point 14 °F    
Average Humidity 48    
Maximum Humidity 86    
Minimum Humidity 24    
Precipitation  
Precipitation 0.00 in - - ()
Sea Level Pressure  
Sea Level Pressure 29.90 in    
Wind  
Wind Speed 6 mph (South)    
Max Wind Speed 25 mph    
Max Gust Speed 34 mph    
Visibility 10 miles    
Events      
Averages and records for this station are not official NWS values.
T = Trace of Precipitation, MM = Missing Value Source: NWS Daily Summary

Daily Weather History Graph

Daily Weather History Graph

Search for Another Location

Airport:

Trip Planner

Search our weather history database for the weather conditions in past years. The results will help you decide how hot, cold, wet, or windy it might be!

Date:

Astronomy

Dec. 23, 2012 Rise Set
Actual Time 7:20 AM MST 4:38 PM MST
Civil Twilight 6:50 AM MST 5:08 PM MST
Nautical Twilight 6:15 AM MST 5:43 PM MST
Astronomical Twilight 5:42 AM MST 6:16 PM MST
Moon 1:30 PM MST (12/23) 3:05 AM MST (12/23)
Length of Visible Light 10h 18m
Length of Day
9h 17m
Waxing Gibbous, 82% of the Moon is Illuminated
Dec 23
Waxing Gibbous
Dec 28
Full
Jan 4
Last Quarter
Jan 11
New
Jan 18
First Quarter

Hourly Weather History & Observations

Time (MST) Temp. Windchill Dew Point Humidity Pressure Visibility Wind Dir Wind Speed Gust Speed Precip Events Conditions
12:15 AM 19.4 °F - 8.6 °F 63% 29.89 in 10.0 mi Calm Calm - N/A   Clear
12:35 AM 17.6 °F - 8.6 °F 68% 29.88 in 10.0 mi Calm Calm - N/A   Clear
1:15 AM 15.8 °F - 6.8 °F 68% 29.88 in 10.0 mi Calm Calm - N/A   Clear
2:15 AM 17.6 °F 12.3 °F 6.8 °F 63% 29.87 in 10.0 mi NNE 3.5 mph - N/A   Clear
2:55 AM 15.8 °F 10.2 °F 12.2 °F 86% 29.87 in 10.0 mi South 3.5 mph - N/A   Clear
3:15 AM 15.8 °F 10.2 °F 8.6 °F 73% 29.86 in 10.0 mi SSW 3.5 mph - N/A   Clear
3:35 AM 19.4 °F 9.5 °F 12.2 °F 74% 29.85 in 10.0 mi NNW 8.1 mph - N/A   Clear
3:55 AM 19.4 °F - 10.4 °F 68% 29.85 in 10.0 mi Calm Calm - N/A   Clear
4:15 AM 21.2 °F - 12.2 °F 68% 29.85 in 10.0 mi Calm Calm - N/A   Clear
4:55 AM 19.4 °F 10.4 °F 8.6 °F 63% 29.85 in 10.0 mi West 6.9 mph - N/A   Clear
5:15 AM 19.4 °F - 6.8 °F 58% 29.85 in 10.0 mi Calm Calm - N/A   Clear
5:35 AM 17.6 °F 7.3 °F 10.4 °F 73% 29.87 in 10.0 mi NNW 8.1 mph - N/A   Clear
5:55 AM 21.2 °F 12.6 °F 10.4 °F 63% 29.86 in 10.0 mi North 6.9 mph - N/A   Clear
6:15 AM 21.2 °F 13.6 °F 8.6 °F 58% 29.86 in 10.0 mi SW 5.8 mph - N/A   Clear
6:35 AM 21.2 °F - 6.8 °F 54% 29.86 in 10.0 mi Calm Calm - N/A   Clear
7:35 AM 21.2 °F 16.4 °F 12.2 °F 68% 29.88 in 10.0 mi NE 3.5 mph - N/A   Clear
7:55 AM 32.0 °F 25.6 °F 12.2 °F 44% 29.89 in 10.0 mi NW 6.9 mph - N/A   Clear
8:15 AM 28.4 °F 20.4 °F 12.2 °F 51% 29.87 in 10.0 mi ENE 8.1 mph - N/A   Clear
8:35 AM 32.0 °F 24.2 °F 15.8 °F 51% 29.88 in 10.0 mi East 9.2 mph - N/A   Clear
8:55 AM 41.0 °F - 17.6 °F 39% 29.89 in 10.0 mi Calm Calm - N/A   Partly Cloudy
9:35 AM 46.4 °F 41.9 °F 21.2 °F 37% 29.90 in 10.0 mi SSE 9.2 mph 16.1 mph N/A   Clear
10:15 AM 48.2 °F - 17.6 °F 30% 29.89 in 10.0 mi ESE 10.4 mph - N/A   Clear
10:35 AM 48.2 °F - 17.6 °F 30% 29.90 in 10.0 mi ESE 5.8 mph - N/A   Clear
10:55 AM 46.4 °F 41.1 °F 19.4 °F 34% 29.90 in 10.0 mi ESE 11.5 mph - N/A   Partly Cloudy
11:35 AM 50.0 °F - 15.8 °F 26% 29.89 in 10.0 mi SE 3.5 mph - N/A   Clear
11:55 AM 51.8 °F - 15.8 °F 24% 29.89 in 10.0 mi West 10.4 mph 19.6 mph N/A   Clear
12:15 PM 51.8 °F - 15.8 °F 24% 29.89 in 10.0 mi WSW 15.0 mph 27.6 mph N/A   Clear
12:35 PM 51.8 °F - 15.8 °F 24% 29.89 in 10.0 mi West 24.2 mph 34.5 mph N/A   Clear
12:55 PM 50.0 °F - 15.8 °F 26% 29.87 in 10.0 mi WSW 21.9 mph 32.2 mph N/A   Clear
1:15 PM 51.8 °F - 17.6 °F 26% 29.86 in 10.0 mi SW 25.3 mph 34.5 mph N/A   Clear
1:35 PM 51.8 °F - 15.8 °F 24% 29.87 in 10.0 mi WSW 21.9 mph 32.2 mph N/A   Clear
1:55 PM 51.8 °F - 17.6 °F 26% 29.89 in 10.0 mi WNW 18.4 mph 21.9 mph N/A   Clear
2:15 PM 51.8 °F - 17.6 °F 26% 29.89 in 10.0 mi West 17.3 mph 20.7 mph N/A   Clear
2:35 PM 50.0 °F - 17.6 °F 28% 29.88 in 10.0 mi SW 12.7 mph 24.2 mph N/A   Clear
3:15 PM 42.8 °F 36.6 °F 15.8 °F 34% 29.87 in 10.0 mi SSW 11.5 mph - N/A   Clear
3:35 PM 44.6 °F 38.8 °F 14.0 °F 29% 29.88 in 10.0 mi SW 11.5 mph - N/A   Clear
3:55 PM 44.6 °F 39.2 °F 14.0 °F 29% 29.88 in 10.0 mi SW 10.4 mph - N/A   Clear
4:15 PM 44.6 °F 38.4 °F 12.2 °F 27% 29.88 in 10.0 mi South 12.7 mph - N/A   Clear
4:55 PM 39.2 °F 34.2 °F 12.2 °F 33% 29.90 in 10.0 mi South 6.9 mph - N/A   Clear
5:15 PM 37.4 °F 30.8 °F 10.4 °F 33% 29.90 in 10.0 mi SSE 9.2 mph - N/A   Clear
5:35 PM 39.2 °F 32.0 °F 12.2 °F 33% 29.91 in 10.0 mi SSW 11.5 mph - N/A   Clear
5:55 PM 41.0 °F 34.3 °F 12.2 °F 31% 29.92 in 10.0 mi SSW 11.5 mph - N/A   Clear
6:15 PM 37.4 °F 32.1 °F 10.4 °F 33% 29.92 in 10.0 mi SE 6.9 mph 17.3 mph N/A   Clear
6:35 PM 35.6 °F 26.6 °F 12.2 °F 38% 29.92 in 10.0 mi SE 13.8 mph - N/A   Clear
6:55 PM 35.6 °F 26.2 °F 15.8 °F 44% 29.92 in 10.0 mi SE 15.0 mph - N/A   Clear
7:15 PM 35.6 °F 25.5 °F 19.4 °F 52% 29.93 in 10.0 mi SSE 17.3 mph - N/A   Clear
7:55 PM 32.0 °F 23.6 °F 17.6 °F 55% 29.93 in 10.0 mi SE 10.4 mph - N/A   Clear
8:15 PM 32.0 °F 23.0 °F 17.6 °F 55% 29.92 in 10.0 mi SE 11.5 mph - N/A   Clear
8:35 PM 30.2 °F 20.2 °F 17.6 °F 60% 29.92 in 10.0 mi SE 12.7 mph - N/A   Clear
8:55 PM 30.2 °F 22.6 °F 17.6 °F 60% 29.93 in 10.0 mi SE 8.1 mph - N/A   Clear
9:15 PM 26.6 °F 20.0 °F 14.0 °F 59% 29.95 in 10.0 mi SW 5.8 mph - N/A   Clear
9:35 PM 30.2 °F - 17.6 °F 60% 29.96 in 10.0 mi Calm Calm - N/A   Clear
9:55 PM 30.2 °F - 17.6 °F 60% 29.96 in 10.0 mi Calm Calm - N/A   Clear
10:15 PM 26.6 °F - 14.0 °F 59% 29.95 in 10.0 mi Calm Calm - N/A   Clear
10:35 PM 26.6 °F - 12.2 °F 55% 29.95 in 10.0 mi Calm Calm - N/A   Clear
10:55 PM 28.4 °F - 15.8 °F 59% 29.95 in 10.0 mi Calm Calm - N/A   Clear
11:15 PM 28.4 °F 24.6 °F 17.6 °F 64% 29.94 in 10.0 mi SE 3.5 mph - N/A   Clear
11:35 PM 30.2 °F - 17.6 °F 60% 29.93 in 10.0 mi Calm Calm - N/A   Clear
11:55 PM 24.8 °F 19.1 °F 15.8 °F 69% 29.92 in 10.0 mi SE 4.6 mph - N/A   Clear